Flag for Canada Weather past 2 weeks in Cranbrook, British Columbia, Canada

Now
10 °F

Clear.


Feels Like: 4 °F
Forecast: 17 / 42 °F
Wind: 3 mph from Southwest

Location: Cranbrook

Current Time: Mar 5, 2015 at 5:30:10 AM

Latest Report: Mar 5, 2015 at 4:00 AM


Visibility: 25 mi

Pressure: 30.40 "Hg

Humidity: 85%

Dew point: 7 °F

Location of CranbrookLocation

Historic Weather in Cranbrook — Graph

°F

Cranbrook temperature yesterday

Maximum temperature yesterday: 30 °F (at 3:00 PM)
Minimum temperature yesterday: 1 °F (at 8:00 AM)
Average temperature yesterday: 16 °F

Past Weeks' High & Low Weather Summary

 TemperatureHumidityPressure
High45 °F (Feb 25, 4:00 PM)93% (Feb 20, 9:00 AM)30.64 "Hg (Feb 20, 9:00 AM)
Low1 °F (Mar 4, 8:00 AM)25% (Feb 28, 4:00 PM)29.99 "Hg (Mar 2, 5:00 AM)
Average25 °F64%30.28 "Hg
* Reported Feb 18 4:00 AM — Mar 5 4:00 AM, Cranbrook, Weather by CustomWeather, © 2015

Note: Actual official high and low records may vary slightly from our data, if they occured in-between our weather recording intervals... More about our weather records

Advertising

Cranbrook weather history for previous 24 hours

 ConditionsComfort  
Time TempWeatherWind HumidityBarometerVisibility
4:00 AM
Thu, Mar 5
10 °FClear.3 mph85%30.40 "Hg25 mi
3:00 AM12 °FPassing clouds.No wind79%30.40 "Hg25 mi
2:00 AM14 °FPassing clouds.3 mph79%30.40 "Hg25 mi
1:00 AM12 °FPassing clouds.5 mph85%30.40 "Hg25 mi
12:00 AM18 °FPassing clouds.2 mph73%30.39 "Hg25 mi
11:00 PM
Wed, Mar 4
18 °FPassing clouds.2 mph79%30.38 "Hg25 mi
10:00 PM19 °FPassing clouds.3 mph73%30.37 "Hg25 mi
9:00 PM21 °FPassing clouds.3 mph68%30.36 "Hg25 mi
8:00 PM25 °FPassing clouds.6 mph54%30.35 "Hg25 mi
7:00 PM25 °FScattered clouds.3 mph54%30.34 "Hg25 mi
6:00 PM28 °FPartly sunny.2 mph47%30.31 "Hg25 mi
5:00 PM30 °FPartly sunny.5 mph43%30.31 "Hg25 mi
3:00 PM30 °FPartly sunny.5 mph40%30.31 "Hg25 mi
2:00 PM27 °FPassing clouds.2 mph43%30.32 "Hg25 mi
1:00 PM25 °FPassing clouds.No wind50%30.36 "Hg25 mi
12:00 PM19 °FPassing clouds.No wind53%30.39 "Hg25 mi
11:00 AM16 °FPassing clouds.3 mph62%30.42 "Hg25 mi
10:00 AM12 °FPassing clouds.No wind67%30.43 "Hg25 mi
9:00 AM7 °FScattered clouds.2 mph78%30.43 "Hg25 mi
8:00 AM1 °FPassing clouds.2 mph85%30.42 "Hg25 mi
7:00 AM3 °FClear.No wind78%30.41 "Hg25 mi
6:00 AM3 °FClear.5 mph85%30.38 "Hg25 mi
5:00 AM3 °FClear.6 mph85%30.37 "Hg25 mi
Weather by CustomWeather, © 2015

See weather overviewHow to use our weather pages